Lancaster, TX

5:54 AM CDT on April 25, 2018 (GMT -0500)
Lancaster

Weather History for KLNC - April, 2013

Change the Weather History Date:

Thursday, April 18, 2013

  Actual Average (KRBD) Record (KRBD)
Temperature  
Mean Temperature 60 °F -  
Max Temperature 74 °F 74 °F 98 °F (2006)
Min Temperature 44 °F 54 °F 39 °F (1999)
Degree Days  
Heating Degree Days 5    
Growing Degree Days 10 (Base 50)    
Moisture  
Dew Point 48 °F    
Average Humidity 76    
Maximum Humidity 96    
Minimum Humidity 54    
Precipitation  
Precipitation 0.64 in - - ()
Sea Level Pressure  
Sea Level Pressure 29.89 in    
Wind  
Wind Speed 18 mph (NW)    
Max Wind Speed 25 mph    
Max Gust Speed 36 mph    
Visibility 9 miles    
Events Rain , Thunderstorm    
Averages and records for this station are not official NWS values.
T = Trace of Precipitation, MM = Missing Value Source: NWS Daily Summary

Daily Weather History Graph

Daily Weather History Graph

Search for Another Location

Airport or City:

Astronomy

Apr. 18, 2013 Rise Set
Actual Time 6:53 AM CDT 7:59 PM CDT
Civil Twilight 6:28 AM CDT 8:24 PM CDT
Nautical Twilight 5:58 AM CDT 8:54 PM CDT
Astronomical Twilight 5:26 AM CDT 9:26 PM CDT
Moon 1:09 PM CDT (4/18) 2:10 AM CDT (4/18)
Length of Visible Light 13h 56m
Length of Day
13h 05m
First Quarter, 52% of the Moon is Illuminated
Apr 18
First Quarter
Apr 25
Full
May 2
Last Quarter
May 9
New
May 17
First Quarter

Hourly Weather History & Observations

Time (CDT) Temp. Windchill Dew Point Humidity Pressure Visibility Wind Dir Wind Speed Gust Speed Precip Events Conditions
12:15 AM 74.8 °F - 70.2 °F 85% 29.67 in 10.0 mi South 16.1 mph 28.8 mph N/A   Overcast
12:35 AM 74.7 °F - 70.2 °F 86% 29.68 in 10.0 mi South 17.3 mph 26.5 mph N/A   Overcast
12:55 AM 74.8 °F - 70.0 °F 85% 29.68 in 10.0 mi SSE 20.7 mph 28.8 mph N/A   Overcast
1:15 AM 73.9 °F - 70.2 °F 88% 29.67 in 7.0 mi South 15.0 mph 26.5 mph N/A   Light Drizzle
1:35 AM 73.0 °F - 70.2 °F 91% 29.67 in 5.0 mi South 23.0 mph 33.4 mph N/A   Light Drizzle
1:55 AM 73.4 °F - 69.6 °F 88% 29.67 in 7.0 mi South 19.6 mph 26.5 mph N/A   Overcast
2:15 AM 74.3 °F - 68.9 °F 83% 29.66 in 10.0 mi South 21.9 mph 32.2 mph N/A   Overcast
2:35 AM 74.7 °F - 68.2 °F 80% 29.65 in 10.0 mi South 17.3 mph 29.9 mph N/A   Overcast
2:55 AM 74.7 °F - 67.6 °F 79% 29.63 in 10.0 mi South 18.4 mph 32.2 mph N/A   Overcast
3:15 AM 74.7 °F - 67.1 °F 77% 29.61 in 10.0 mi South 25.3 mph 34.5 mph N/A   Overcast
3:35 AM 74.7 °F - 67.1 °F 77% 29.60 in 10.0 mi South 20.7 mph 31.1 mph N/A   Overcast
3:55 AM 74.7 °F - 66.7 °F 76% 29.60 in 10.0 mi South 21.9 mph 29.9 mph N/A   Overcast
4:15 AM 75.2 °F - 66.2 °F 73% 29.60 in 10.0 mi South 24.2 mph 35.7 mph N/A   Overcast
4:35 AM 74.5 °F - 66.7 °F 77% 29.60 in 10.0 mi South 20.7 mph 34.5 mph N/A   Overcast
4:55 AM 74.3 °F - 66.9 °F 78% 29.61 in 10.0 mi South 17.3 mph 26.5 mph N/A   Overcast
5:15 AM 69.8 °F - 61.0 °F 73% 29.69 in 10.0 mi WNW 18.4 mph 31.1 mph N/A Thunderstorm Overcast
5:35 AM 59.4 °F - 57.7 °F 94% 29.72 in 2.5 mi WNW 15.0 mph 26.5 mph 0.30 in Rain , Thunderstorm Heavy Thunderstorms and Rain
5:55 AM 54.7 °F - 53.4 °F 96% 29.74 in 2.0 mi NW 18.4 mph 28.8 mph 0.34 in Rain , Thunderstorm Heavy Thunderstorms and Rain
6:15 AM 53.2 °F - 51.8 °F 95% 29.78 in 3.0 mi NW 17.3 mph 27.6 mph 0.12 in Rain , Thunderstorm Heavy Thunderstorms and Rain
6:35 AM 51.3 °F - 49.5 °F 94% 29.77 in 4.0 mi NNW 19.6 mph 26.5 mph 0.17 in Rain , Thunderstorm Heavy Thunderstorms and Rain
6:55 AM 50.5 °F - 48.6 °F 93% 29.79 in 7.0 mi NW 16.1 mph 21.9 mph 0.19 in Rain , Thunderstorm Rain
7:15 AM 49.5 °F - 47.7 °F 94% 29.84 in 7.0 mi NW 12.7 mph 21.9 mph 0.01 in Rain , Thunderstorm Thunderstorms and Rain
7:35 AM 48.9 °F - 46.9 °F 93% 29.86 in 5.0 mi NW 17.3 mph 28.8 mph 0.06 in Rain Heavy Rain
7:55 AM 48.2 °F - 46.2 °F 93% 29.84 in 7.0 mi NW 21.9 mph 28.8 mph 0.07 in Rain Rain
8:15 AM 48.2 °F - 46.4 °F 93% 29.85 in 7.0 mi NNW 18.4 mph 23.0 mph 0.01 in Rain Light Rain
8:35 AM 47.7 °F - 45.1 °F 91% 29.90 in 10.0 mi NW 16.1 mph 24.2 mph 0.02 in Rain Light Rain
8:55 AM 47.3 °F - 45.0 °F 92% 29.86 in 5.0 mi NNW 18.4 mph 23.0 mph 0.03 in Rain Light Rain
9:15 AM 47.3 °F - 43.2 °F 86% 29.90 in 10.0 mi NW 20.7 mph 28.8 mph N/A   Overcast
9:35 AM 46.8 °F - 43.7 °F 89% 29.91 in 10.0 mi NNW 18.4 mph 24.2 mph 0.01 in Rain , Thunderstorm Light Thunderstorms and Rain
9:55 AM 46.8 °F - 43.0 °F 87% 29.92 in 10.0 mi NNW 16.1 mph - 0.01 in Rain Light Rain
10:15 AM 46.4 °F 40.1 °F 42.8 °F 87% 29.95 in 10.0 mi NNW 15.0 mph 25.3 mph N/A Rain Light Rain
10:35 AM 46.9 °F - 43.3 °F 87% 29.94 in 10.0 mi NNW 13.8 mph 20.7 mph N/A   Overcast
10:55 AM 46.8 °F - 43.2 °F 87% 29.96 in 10.0 mi NW 18.4 mph - N/A   Overcast
11:15 AM 47.1 °F - 43.0 °F 86% 29.94 in 10.0 mi NW 18.4 mph 28.8 mph N/A   Overcast
11:35 AM 47.7 °F - 41.7 °F 80% 29.96 in 10.0 mi NW 15.0 mph 24.2 mph N/A   Overcast
11:55 AM 46.9 °F - 40.8 °F 79% 29.98 in 10.0 mi NNW 17.3 mph - N/A   Overcast
12:15 PM 46.8 °F - 41.4 °F 81% 29.95 in 10.0 mi NNW 16.1 mph 24.2 mph N/A   Overcast
12:35 PM 46.8 °F - 40.1 °F 78% 29.94 in 10.0 mi NW 20.7 mph 26.5 mph N/A   Overcast
12:55 PM 47.1 °F - 39.9 °F 76% 29.96 in 10.0 mi NW 19.6 mph 25.3 mph N/A   Overcast
1:15 PM 47.8 °F - 39.7 °F 74% 29.98 in 10.0 mi NW 19.6 mph 24.2 mph N/A   Overcast
1:35 PM 48.4 °F - 39.6 °F 72% 29.97 in 10.0 mi NNW 17.3 mph 25.3 mph N/A   Overcast
1:55 PM 48.7 °F - 40.1 °F 72% 29.97 in 10.0 mi NW 16.1 mph 23.0 mph N/A   Overcast
2:15 PM 49.1 °F - 39.6 °F 70% 29.97 in 10.0 mi NNW 19.6 mph 24.2 mph N/A   Overcast
2:35 PM 49.3 °F - 39.4 °F 69% 29.98 in 10.0 mi NW 16.1 mph 24.2 mph N/A   Overcast
2:55 PM 50.2 °F - 39.7 °F 67% 29.98 in 10.0 mi NNW 19.6 mph 25.3 mph N/A   Overcast
3:15 PM 51.6 °F - 40.6 °F 66% 29.97 in 10.0 mi NNW 18.4 mph - N/A   Overcast
3:35 PM 53.1 °F - 41.4 °F 64% 29.97 in 10.0 mi NNW 21.9 mph 27.6 mph N/A   Mostly Cloudy
3:55 PM 53.6 °F - 41.0 °F 62% 29.97 in 10.0 mi NW 18.4 mph 26.5 mph N/A   Scattered Clouds
4:15 PM 55.0 °F - 42.3 °F 62% 29.96 in 10.0 mi NW 17.3 mph 27.6 mph N/A   Scattered Clouds
4:35 PM 55.0 °F - 40.6 °F 58% 29.96 in 10.0 mi NNW 18.4 mph 24.2 mph N/A   Clear
4:55 PM 55.2 °F - 41.0 °F 59% 29.97 in 10.0 mi NNW 20.7 mph 27.6 mph N/A   Clear
5:15 PM 55.4 °F - 41.2 °F 59% 29.97 in 10.0 mi NW 20.7 mph 25.3 mph N/A   Scattered Clouds
5:35 PM 54.9 °F - 40.5 °F 58% 29.97 in 10.0 mi NNW 16.1 mph 24.2 mph N/A   Scattered Clouds
5:55 PM 54.0 °F - 39.0 °F 57% 29.98 in 10.0 mi NNW 19.6 mph 26.5 mph N/A   Scattered Clouds
6:15 PM 55.4 °F - 38.8 °F 54% 29.99 in 10.0 mi NW 18.4 mph 24.2 mph N/A   Scattered Clouds
6:35 PM 54.1 °F - 38.3 °F 55% 29.99 in 10.0 mi NNW 16.1 mph 20.7 mph N/A   Clear
6:55 PM 54.5 °F - 38.5 °F 55% 30.00 in 10.0 mi NNW 18.4 mph 24.2 mph N/A   Clear
7:15 PM 53.8 °F - 37.4 °F 54% 30.01 in 10.0 mi NW 15.0 mph 25.3 mph N/A   Clear
7:35 PM 53.1 °F - 37.0 °F 55% 30.02 in 10.0 mi NNW 16.1 mph 23.0 mph N/A   Clear
7:55 PM 52.3 °F - 36.7 °F 55% 30.03 in 10.0 mi NNW 12.7 mph 23.0 mph N/A   Clear
8:15 PM 51.4 °F - 36.0 °F 56% 30.05 in 10.0 mi NNW 16.1 mph 19.6 mph N/A   Clear
8:35 PM 50.9 °F - 36.0 °F 57% 30.06 in 10.0 mi NNW 12.7 mph 19.6 mph N/A   Scattered Clouds
10:15 PM 48.2 °F - 35.6 °F 62% 30.15 in 10.0 mi NNW 5.8 mph - N/A   Clear
10:35 PM 45.5 °F 43.2 °F 39.2 °F 79% 30.16 in 10.0 mi North 4.6 mph - N/A   Clear
10:55 PM 46.4 °F 42.4 °F 36.1 °F 67% 30.17 in 10.0 mi North 8.1 mph - N/A   Clear
11:15 PM 46.2 °F 40.8 °F 34.7 °F 64% 30.17 in 10.0 mi North 11.5 mph - N/A   Clear
11:35 PM 45.5 °F 41.3 °F 34.3 °F 65% 30.17 in 10.0 mi North 8.1 mph - N/A   Clear
11:55 PM 44.1 °F 40.1 °F 35.2 °F 71% 30.17 in 10.0 mi North 6.9 mph - N/A   Clear